Location: Ponte Samoggia
(44.5667°N, 11.1333°E)
Time: 23:55:23
(UTC+00:00)

Helios 1B rocket - Pass Details

Date: 26 May 2022
Orbit: 569 x 578 km, 98.2° (Epoch: 26 June)

Event Time Altitude Azimuth Distance (km) Brightness Sun altitude
Rises 02:38:29 0° 11° (N) 2,783 6.9 -9.3°
Reaches altitude 10° 02:40:38 10° 10° (N) 1,881 5.9 -9.0°
Maximum altitude 02:44:41 74° 286° (WNW) 597 2.4 -8.4°
Drops below altitude 10° 02:48:43 10° 201° (SSW) 1,866 4.5 -7.9°
Enters shadow 02:49:24 - 200° (SSW) 2,148 4.8 -7.8°
